Powrót do katalogu

COSMOS 678

AktywnyMilitariaLEO
NORAD 7436·PAYLOAD·🇷🇺 Russia

Wystrzelony Sep 19, 1974 z Plesetsk Cosmodrome

Loading…

Następne Przeloty (najbliższe 24 godziny)

TLE

ŚwieżeSource: Space-Track

Epoka: Sep 14, 2026, 09:37 UTC

1 07436U 74072B   26257.40098479 -.00000028  00000-0 -88543-4 0  9997
2 07436  74.0325 236.3836 0042295 237.8905 275.9438 12.41801237356674

Śledź COSMOS 678 w czasie rzeczywistym z AllMySat

Download on the App Store